[[{"header":{"parameterUnit":"m.s-1","parameterCategory":1,"la1":30.2991,"la2":30.254,"lo1":-89.0895,"lo2":-89.0444,"dy":0.0017,"dx":0.0017,"nx":28,"ny":28,"refTime":"2025-11-23T09:00:00:Z","depth":0,"parameterNumber":2,"parameterNumberName":"U-component_of_WINDS"},"data":[0,0,0,0,0,0,0,0,0,0,0,0,0,0,0,0,0,0,0,0,0,0,0,0,0,0,0,0,0,0,0,0,0,0,0,0,0,0,0,0,0,0,0,0,0,0,0,0,0,0,0,0,0,0,0,0,0,0,-2.0799,-2.0802,0,-2.1007,-2.101,-2.1012,-2.1115,-2.1115,-2.1115,-2.1115,-2.1323,-2.1329,-2.1334,0,0,0,0,0,0,0,0,0,0,0,0,0,-2.0489,-2.0494,-2.0799,-2.0802,-2.0805,-2.1007,-2.101,-2.1013,-2.1115,-2.1115,-2.1115,-2.1115,-2.1321,-2.1328,-2.1335,0,0,0,0,0,0,0,0,0,0,0,0,0,-2.0653,-2.0496,-2.0799,-2.088,-2.0889,-2.1006,-2.101,-2.1013,-2.1115,-2.1115,-2.1115,-2.1115,-2.1319,-2.1327,-2.1336,-2.1386,0,0,-2.1361,-2.1364,0,0,0,0,0,0,0,0,-2.0643,-2.0664,-2.0866,-2.0875,-2.0885,-2.1035,-2.0977,-2.1138,-2.1115,-2.1029,-2.1115,-2.1115,-2.1227,-2.1243,-2.1282,-2.1396,-2.1405,-2.1362,-2.1367,-2.137,-2.1373,0,0,0,0,0,0,0,-2.0632,-2.0656,-2.0882,-2.0868,-2.088,-2.0906,-2.0929,-2.1008,-2.1125,-2.1037,-2.1045,-2.1068,-2.1233,-2.1274,-2.1287,-2.1408,-2.1361,-2.1369,-2.1374,-2.1377,-2.1577,-2.1577,0,0,0,0,0,0,-2.0608,-2.0646,-2.0875,-2.0888,-2.0762,-2.0911,-2.0937,-2.0987,-2.1125,-2.1146,-2.1068,-2.1072,-2.1259,-2.1278,-2.1295,-2.1366,-2.137,-2.1378,-2.1383,-2.1577,-2.1577,-2.1578,0,0,0,0,0,0,-2.0601,-2.0627,-2.0867,-2.0769,-2.0802,-2.0917,-2.0972,-2.0991,-2.1032,-2.1148,-2.1169,-2.1088,-2.126,-2.1283,-2.1364,-2.1374,-2.1382,-2.1389,-2.1576,-2.1577,-2.1577,-2.1505,0,0,0,0,0,0,-2.0591,-2.0624,-2.0645,-2.0769,-2.0806,-2.0932,-2.0972,-2.0995,-2.1047,-2.1055,-2.1173,-2.1193,-2.1262,-2.1351,-2.1372,-2.1386,-2.1396,-2.1576,-2.1577,-2.1577,-2.1507,-2.1503,-2.15,0,0,0,0,0,-2.058,-2.0614,-2.0645,-2.0672,-2.0835,-2.0932,-2.0954,-2.1034,-2.1047,-2.1069,-2.1144,-2.1189,-2.137,-2.1358,-2.1383,-2.1399,-2.1576,-2.1576,-2.1577,-2.1509,-2.1504,-2.15,0,0,0,0,0,0,-2.0486,-2.0632,-2.0668,-2.0743,-2.0825,-2.0949,-2.0979,-2.1026,-2.1104,-2.1107,-2.1202,-2.1228,-2.13,-2.1358,-2.1342,-2.1457,-2.1477,-2.1483,-2.1417,-2.1413,-2.1409,-2.1394,-2.1402,0,0,0,0,0,-2.0474,-2.0543,-2.0666,-2.0721,-2.076,-2.0862,-2.0908,-2.0963,-2.1051,-2.1085,-2.1166,-2.1248,-2.1324,-2.1372,-2.1448,-2.1516,-2.1544,-2.154,-2.1536,-2.1532,-2.1536,-2.1579,-2.1579,-2.158,-2.158,-2.158,0,0,-2.045,-2.0539,-2.0575,-2.0704,-2.0774,-2.0842,-2.0891,-2.096,-2.1012,-2.1095,-2.1177,-2.1239,-2.1338,-2.1413,-2.145,-2.1463,-2.1543,-2.1533,-2.153,-2.1536,-2.158,-2.158,-2.158,-2.1581,-2.1581,-2.158,0,0,-2.0442,-2.0515,-2.057,-2.064,-2.0746,-2.0814,-2.0827,-2.0946,-2.0992,-2.1076,-2.1141,-2.1203,-2.1331,-2.1399,-2.1451,-2.1472,-2.1517,-2.1494,-2.1474,-2.1515,-2.1515,-2.1515,-2.1524,-2.1526,-2.1497,-2.1497,-2.1497,0,-2.0398,-2.0505,-2.0592,-2.0659,-2.0715,-2.0796,-2.0853,-2.0916,-2.104,-2.1077,-2.109,-2.1255,-2.1326,-2.142,-2.1426,-2.1464,-2.1483,-2.148,-2.1508,-2.151,-2.1511,-2.1521,-2.1524,-2.1494,-2.1494,-2.1494,-2.1495,0,-2.0447,-2.052,-2.0551,-2.0672,-2.0731,-2.0792,-2.0889,-2.0939,-2.0989,-2.1056,-2.1142,-2.1232,-2.1328,-2.1355,-2.1403,-2.1456,-2.1462,-2.149,-2.1512,-2.1506,-2.1517,-2.1521,-2.1489,-2.149,-2.1491,-2.1492,0,0,-2.0382,-2.0554,-2.0564,-2.0621,-2.0746,-2.0804,-2.0869,-2.0966,-2.1007,-2.1091,-2.1149,-2.1257,-2.1286,-2.1344,-2.1402,-2.1438,-2.1451,-2.1463,-2.1467,-2.1459,-2.1517,-2.1495,-2.1498,-2.1482,-2.1483,-2.1484,-2.1509,0,-2.0392,-2.0515,-2.0597,-2.0688,-2.0757,-2.0838,-2.0895,-2.0978,-2.1043,-2.1111,-2.1182,-2.1258,-2.129,-2.1326,-2.1365,-2.1441,-2.1464,-2.1441,-2.1537,-2.154,-2.151,-2.1503,-2.148,-2.1499,-2.1514,-2.1515,-2.1515,0,-2.0419,-2.0503,-2.0601,-2.0722,-2.0754,-2.0804,-2.0901,-2.0965,-2.1061,-2.1106,-2.1173,-2.1233,-2.1306,-2.1323,-2.1426,-2.1408,-2.1453,-2.1496,-2.1499,-2.1511,-2.1527,-2.1516,-2.1507,-2.151,-2.1522,-2.1522,-2.1521,0,-2.0364,-2.0502,-2.0579,-2.0626,-2.0767,-2.0801,-2.0861,-2.0958,-2.1012,-2.1096,-2.1133,-2.1223,-2.1273,-2.1342,-2.1426,-2.143,-2.1521,-2.1543,-2.156,-2.1558,-2.1575,-2.1573,-2.1574,-2.1603,-2.1603,-2.1603,-2.1603,0,-2.0366,-2.0423,-2.0557,-2.0604,-2.0672,-2.0766,-2.0829,-2.0896,-2.0982,-2.1044,-2.1118,-2.1175,-2.1281,-2.1351,-2.1416,-2.1492,-2.1514,-2.1552,-2.1569,-2.1546,-2.1541,-2.1576,-2.1577,-2.1604,-2.1603,-2.1603,-2.1603,0,-2.0315,-2.0407,-2.0497,-2.0625,-2.0659,-2.0703,-2.0812,-2.0862,-2.0932,-2.101,-2.1033,-2.1143,-2.123,-2.132,-2.1436,-2.148,-2.1554,-2.1577,-2.1522,-2.1532,-2.1544,-2.1542,-2.1568,-2.1577,-2.1598,-2.1598,-2.1597,0,-2.031,-2.0357,-2.0491,-2.0539,-2.0598,-2.0674,-2.0731,-2.0826,-2.0882,-2.0997,-2.1032,-2.1125,-2.1204,-2.1338,-2.1428,-2.1518,-2.1544,-2.1547,-2.1557,-2.1534,-2.1545,-2.1542,-2.1548,-2.1542,-2.1542,-2.1541,-2.1541,0,-2.0293,-2.0337,-2.0417,-2.0513,-2.0579,-2.0659,-2.0741,-2.0776,-2.0888,-2.0947,-2.1037,-2.1099,-2.122,-2.1311,-2.1412,-2.1474,-2.1526,-2.1537,-2.1546,-2.1523,-2.149,-2.1509,-2.1513,-2.1536,-2.1536,-2.1537,-2.1537,-2.1537,-2.0267,-2.0313,-2.0415,-2.0502,-2.0575,-2.0651,-2.0705,-2.0783,-2.0861,-2.0968,-2.102,-2.111,-2.1208,-2.135,-2.1411,-2.1484,-2.1498,-2.1511,-2.1514,-2.1516,-2.1511,-2.1478,-2.1502,-2.1502,-2.1503,-2.1503,-2.1503,0,-2.0254,-2.0325,-2.0404,-2.0519,-2.0587,-2.0633,-2.0728,-2.0782,-2.0862,-2.0949,-2.1026,-2.1131,-2.1221,-2.1319,-2.1415,-2.1454,-2.1481,-2.1476,-2.1474,-2.1488,-2.1491,-2.1475,-2.1453,-2.1453,-2.1453,-2.1453,-2.1453,-2.1453,-2.0256,-2.0337,-2.0394,-2.0512,-2.0583,-2.0674,-2.0725,-2.0796,-2.0867,-2.0981,-2.1057,-2.1122,-2.1214,-2.1318,-2.1402,-2.1429,-2.1461,-2.145,-2.1483,-2.1484,-2.1488,-2.1491,-2.1476,-2.1456,-2.1456,-2.1474,-2.1475,-2.1475]},{"header":{"parameterUnit":"m.s-1","parameterCategory":1,"la1":30.2991,"la2":30.254,"lo1":-89.0895,"lo2":-89.0444,"dy":0.0017,"dx":0.0017,"nx":28,"ny":28,"refTime":"2025-11-23T09:00:00:Z","depth":0,"parameterNumber":3,"parameterNumberName":"V-component_of_WINDS"},"data":[0,0,0,0,0,0,0,0,0,0,0,0,0,0,0,0,0,0,0,0,0,0,0,0,0,0,0,0,0,0,0,0,0,0,0,0,0,0,0,0,0,0,0,0,0,0,0,0,0,0,0,0,0,0,0,0,0,0,4.5343,4.5345,0,4.5507,4.5509,4.5511,4.5574,4.5573,4.5573,4.5572,4.5737,4.5742,4.5747,0,0,0,0,0,0,0,0,0,0,0,0,0,4.5082,4.5087,4.5343,4.5345,4.5347,4.5507,4.5509,4.5511,4.5574,4.5573,4.5572,4.5572,4.5736,4.5741,4.5747,0,0,0,0,0,0,0,0,0,0,0,0,0,4.5216,4.5088,4.5343,4.5397,4.5404,4.5507,4.5509,4.5512,4.5574,4.5573,4.5572,4.5572,4.5734,4.5741,4.5748,4.5807,0,0,4.577,4.5773,0,0,0,0,0,0,0,0,4.5208,4.5225,4.5387,4.5394,4.5401,4.5519,4.5478,4.5611,4.5574,4.5509,4.5572,4.5571,4.5665,4.5678,4.571,4.5815,4.5822,4.5771,4.5775,4.5778,4.578,0,0,0,0,0,0,0,4.5199,4.5218,4.5408,4.539,4.5398,4.5414,4.5432,4.5503,4.5589,4.5515,4.552,4.5538,4.5669,4.5703,4.5715,4.5824,4.5771,4.5777,4.5782,4.5784,4.5989,4.599,0,0,0,0,0,0,4.5181,4.521,4.5403,4.5413,4.5301,4.5419,4.5439,4.5482,4.5588,4.5604,4.5539,4.5541,4.5691,4.5706,4.5721,4.5799,4.5778,4.5785,4.5789,4.5988,4.5989,4.599,0,0,0,0,0,0,4.5175,4.5197,4.5396,4.5313,4.534,4.5424,4.5472,4.5486,4.552,4.5607,4.5622,4.5558,4.5691,4.571,4.5786,4.5805,4.5788,4.5795,4.5986,4.5988,4.599,4.5954,0,0,0,0,0,0,4.5167,4.5195,4.5218,4.5313,4.5344,4.5459,4.5473,4.5489,4.5533,4.5537,4.5629,4.5644,4.5692,4.5775,4.5793,4.5815,4.5801,4.5985,4.5987,4.5989,4.5954,4.5954,4.5954,0,0,0,0,0,4.5157,4.52,4.5219,4.5242,4.5375,4.546,4.5477,4.5533,4.5534,4.5558,4.5615,4.5641,4.58,4.5782,4.5803,4.5827,4.5984,4.5987,4.5989,4.5954,4.5954,4.5954,0,0,0,0,0,0,4.5103,4.5213,4.5235,4.531,4.5375,4.547,4.5502,4.5531,4.5596,4.5597,4.5663,4.5683,4.5754,4.5798,4.5776,4.5892,4.5894,4.5901,4.586,4.5861,4.5861,4.5849,4.5807,0,0,0,0,0,4.51,4.5161,4.5253,4.531,4.5342,4.5417,4.5455,4.5493,4.5563,4.559,4.5652,4.5718,4.5783,4.5825,4.5889,4.5961,4.5983,4.5988,4.5988,4.5988,4.5993,4.6037,4.6041,4.5998,4.5998,4.5998,0,0,4.5094,4.5162,4.5195,4.5301,4.5356,4.5417,4.5439,4.5502,4.5548,4.5599,4.5675,4.5723,4.5801,4.5876,4.5911,4.5915,4.601,4.5991,4.5991,4.5996,4.604,4.6043,4.6047,4.6,4.5999,4.5999,0,0,4.5114,4.5171,4.5226,4.5281,4.5365,4.5415,4.5428,4.5519,4.5553,4.5631,4.5672,4.5727,4.5838,4.5893,4.5935,4.5979,4.6006,4.5998,4.6,4.6041,4.6045,4.6048,4.6065,4.607,4.6003,4.6003,4.6003,0,4.5096,4.519,4.525,4.5312,4.5358,4.541,4.5466,4.5516,4.5616,4.5647,4.565,4.5792,4.5848,4.5937,4.5948,4.598,4.5998,4.5988,4.6039,4.6043,4.6047,4.6064,4.6071,4.6002,4.6002,4.6002,4.6002,0,4.5164,4.5229,4.5263,4.536,4.541,4.5468,4.5538,4.5581,4.5615,4.5665,4.5744,4.5814,4.5895,4.5919,4.5951,4.6013,4.6013,4.6027,4.603,4.6049,4.6066,4.6073,4.6,4.6,4.6,4.6001,0,0,4.5152,4.5285,4.5296,4.5342,4.5439,4.5491,4.5552,4.5633,4.5669,4.5737,4.5791,4.5885,4.59,4.5947,4.5987,4.6024,4.6057,4.6034,4.6037,4.6036,4.6131,4.612,4.6126,4.6075,4.6077,4.6078,4.6125,0,4.5186,4.53,4.5357,4.5446,4.5507,4.5558,4.5612,4.5678,4.5726,4.5786,4.5839,4.5905,4.5919,4.5948,4.5987,4.6044,4.6076,4.6042,4.6126,4.6129,4.6106,4.6135,4.6124,4.6164,4.6132,4.6133,4.6134,0,4.524,4.531,4.5405,4.5498,4.5525,4.5573,4.5653,4.5709,4.5785,4.5818,4.5873,4.5913,4.598,4.598,4.6074,4.605,4.6088,4.6122,4.6125,4.6135,4.6132,4.6147,4.6178,4.6184,4.6145,4.6144,4.6143,0,4.5224,4.5341,4.5414,4.5451,4.5561,4.5593,4.564,4.5716,4.5762,4.5831,4.5862,4.5938,4.598,4.6038,4.6098,4.6091,4.6187,4.6191,4.6217,4.6215,4.6234,4.6232,4.6273,4.6258,4.6258,4.6258,4.6258,0,4.5256,4.5312,4.5408,4.5453,4.5518,4.5584,4.5647,4.5698,4.5765,4.5821,4.587,4.5921,4.5997,4.6058,4.6105,4.6177,4.6195,4.6224,4.6236,4.622,4.6216,4.6246,4.6245,4.626,4.6259,4.6259,4.6259,0,4.5248,4.5314,4.5398,4.5495,4.5522,4.5565,4.5649,4.5695,4.5747,4.5817,4.5837,4.5919,4.5994,4.6059,4.6157,4.6189,4.6264,4.6278,4.6238,4.6245,4.6267,4.6264,4.6328,4.6341,4.6317,4.6317,4.6317,0,4.5264,4.5309,4.5412,4.5454,4.5501,4.5567,4.5614,4.5682,4.5729,4.5821,4.5856,4.5934,4.6001,4.6118,4.6186,4.6262,4.6279,4.6296,4.629,4.6274,4.628,4.6277,4.6283,4.6295,4.6295,4.6295,4.6295,0,4.5285,4.5317,4.5384,4.5464,4.552,4.5585,4.5652,4.5683,4.5763,4.5814,4.5892,4.5944,4.6046,4.6123,4.6207,4.6256,4.629,4.6297,4.6307,4.6291,4.6267,4.6282,4.6238,4.6295,4.6295,4.6295,4.6295,4.6295,4.5291,4.5334,4.5415,4.5488,4.5546,4.5608,4.5657,4.5716,4.5782,4.5871,4.5907,4.5987,4.6064,4.6181,4.623,4.6294,4.6299,4.6313,4.6317,4.632,4.6318,4.6257,4.6309,4.6309,4.6309,4.6309,4.6309,0,4.5316,4.5371,4.5438,4.5532,4.559,4.5618,4.5694,4.5741,4.5811,4.5881,4.5946,4.6036,4.6113,4.6188,4.6268,4.6305,4.6323,4.6324,4.6322,4.6333,4.6307,4.6291,4.6309,4.6309,4.6309,4.6309,4.6309,4.6309,4.5336,4.5411,4.5453,4.5558,4.5613,4.5692,4.5733,4.5791,4.5848,4.5947,4.6011,4.606,4.6133,4.6219,4.6291,4.6312,4.6339,4.6337,4.6361,4.6335,4.6335,4.6334,4.6319,4.6342,4.6342,4.6382,4.6382,4.6382]}]]